FW3071 Weather Reports


time (UTC)temp
F
wind
direction
speed
knots
gust
knots
rain 1hr
in
rain 24hr
in
rain mn
in
humidity
%
barometer
mb
20260504050519 69 125 3.5 7.8 0.00 0.00 0.00 74 1018.3
20260504045519 69 113 3.5 7.8 0.00 0.00 0.00 74 1018.5
20260504045019 69 130 3.5 7.8 0.00 0.00 0.00 74 1018.6
20260504044545 69 105 3.5 7.8 0.00 0.00 0.00 73 1018.7
20260504044019 69 149 4.3 7.8 0.00 0.00 0.00 73 1018.7
20260504043519 69 124 4.3 7.8 0.00 0.00 0.00 73 1018.8
20260504043036 69 129 4.3 8.7 0.00 0.00 0.00 73 1018.8
20260504042518 69 122 4.3 8.7 0.00 0.00 0.00 73 1018.6
20260504042116 69 123 5.2 8.7 0.00 0.00 0.00 73 1018.7
20260504041536 69 130 3.5 7.8 0.00 0.00 0.00 73 1018.8
20260504041020 69 132 4.3 7.8 0.00 0.00 0.00 73 1018.8
20260504040520 69 96 3.5 7.0 0.00 0.00 0.00 73 1018.6
20260504035520 69 133 3.5 7.0 0.00 0.00 0.00 73 1018.8
20260504035020 70 124 3.5 7.8 0.00 0.00 0.00 72 1018.7
20260504034536 70 127 4.3 9.6 0.00 0.00 0.00 72 1018.7
20260504034020 70 136 4.3 10.4 0.00 0.00 0.00 72 1018.8
20260504033521 70 134 7.0 10.4 0.00 0.00 0.00 71 1018.6
20260504033040 70 121 5.2 9.6 0.00 0.00 0.00 72 1018.6
20260504032521 70 126 5.2 9.6 0.00 0.00 0.00 72 1018.6
20260504032021 70 136 2.6 7.8 0.00 0.00 0.00 72 1018.6
20260504031539 70 95 4.3 7.8 0.00 0.00 0.00 72 1018.6
20260504031019 70 134 4.3 8.7 0.00 0.00 0.00 71 1018.5
20260504030520 70 115 4.3 8.7 0.00 0.00 0.00 71 1018.6
20260504030039 70 123 3.5 7.8 0.00 0.00 0.00 71 1018.5
20260504025519 70 111 2.6 7.8 0.00 0.00 0.00 71 1018.6
20260504025019 70 111 2.6 7.8 0.00 0.00 0.00 71 1018.6
20260504024535 70 111 2.6 7.8 0.00 0.00 0.00 70 1018.7
20260504024021 70 103 2.6 7.8 0.00 0.00 0.00 70 1018.6
20260504023519 70 107 2.6 7.8 0.00 0.00 0.00 70 1018.6
20260504023035 70 88 2.6 7.8 0.00 0.00 0.00 69 1018.5
20260504022521 70 127 3.5 7.8 0.00 0.00 0.00 68 1018.6
20260504022019 70 112 1.7 8.7 0.00 0.00 0.00 68 1018.6
20260504021534 70 121 2.6 9.6 0.00 0.00 0.00 68 1018.4
20260504021020 70 113 4.3 9.6 0.00 0.00 0.00 68 1018.3
20260504020519 70 103 3.5 8.7 0.00 0.00 0.00 68 1018.2
20260504020039 70 112 3.5 7.8 0.00 0.00 0.00 68 1018.2
20260504015519 70 91 2.6 7.8 0.00 0.00 0.00 68 1018.2
20260504015019 71 84 3.5 7.8 0.00 0.00 0.00 67 1018.2
20260504014539 71 119 3.5 8.7 0.00 0.00 0.00 67 1018.1
20260504014018 71 132 3.5 10.4 0.00 0.00 0.00 66 1018.0
20260504013518 71 106 3.5 10.4 0.00 0.00 0.00 66 1018.2
20260504013046 71 105 6.1 10.4 0.00 0.00 0.00 66 1018.1
20260504012523 71 105 2.6 8.7 0.00 0.00 0.00 66 1018.1
20260504012022 72 117 4.3 11.3 0.00 0.00 0.00 65 1017.9
20260504011537 72 128 5.2 11.3 0.00 0.00 0.00 65 1018.0
20260504011019 72 138 7.0 10.4 0.00 0.00 0.00 64 1018.0
20260504010520 72 114 6.1 11.3 0.00 0.00 0.00 64 1018.0
20260504010035 73 128 6.1 11.3 0.00 0.00 0.00 64 1018.0
20260504005519 73 113 7.0 11.3 0.00 0.00 0.00 63 1018.0
20260504005019 73 113 5.2 12.2 0.00 0.00 0.00 63 1018.0
20260504004535 74 91 7.0 12.2 0.00 0.00 0.00 61 1018.0
20260504004019 74 109 7.0 12.2 0.00 0.00 0.00 61 1018.1
20260504003520 75 125 7.0 12.2 0.00 0.00 0.00 59 1018.2
20260504003040 75 110 8.7 13.0 0.00 0.00 0.00 59 1018.3
20260504002519 75 95 7.0 13.0 0.00 0.00 0.00 59 1018.4
20260504002021 76 102 8.7 13.0 0.00 0.00 0.00 59 1018.4
20260504001550 76 92 7.0 13.0 0.00 0.00 0.00 59 1018.3
20260504001018 76 102 5.2 13.9 0.00 0.00 0.00 58 1018.3
20260504000518 76 111 7.8 13.9 0.00 0.00 0.00 57 1018.3
20260504000039 77 92 8.7 14.8 0.00 0.00 0.00 56 1018.3
20260503235518 77 102 7.0 14.8 0.00 0.00 0.00 56 1018.3
20260503235019 77 108 9.6 14.8 0.00 0.00 0.00 56 1018.3
20260503234535 78 96 7.8 14.8 0.00 0.00 0.00 56 1018.2
20260503234019 78 89 7.0 12.2 0.00 0.00 0.00 55 1018.2
20260503233521 78 82 7.0 13.0 0.00 0.00 0.00 57 1018.3
20260503233041 78 113 7.8 13.0 0.00 0.00 0.00 55 1018.3
20260503232520 79 105 7.0 13.0 0.00 0.00 0.00 54 1018.4
20260503232019 79 101 8.7 13.9 0.00 0.00 0.00 54 1018.5
20260503231539 79 71 7.8 13.9 0.00 0.00 0.00 55 1018.6
20260503231020 80 103 9.6 13.0 0.00 0.00 0.00 53 1018.6
20260503230520 79 128 7.0 13.0 0.00 0.00 0.00 53 1018.6
20260503230041 80 132 7.0 13.9 0.00 0.00 0.00 53 1018.5
20260503225520 80 93 7.8 13.9 0.00 0.00 0.00 54 1018.6
20260503225019 80 102 8.7 16.5 0.00 0.00 0.00 52 1018.8
20260503224536 80 111 7.0 16.5 0.00 0.00 0.00 55 1018.8
20260503224019 80 128 9.6 14.8 0.00 0.00 0.00 52 1018.8
20260503223519 80 106 9.6 14.8 0.00 0.00 0.00 53 1018.8
20260503223036 81 131 7.8 14.8 0.00 0.00 0.00 54 1018.8
20260503222518 80 108 7.8 14.8 0.00 0.00 0.00 56 1018.8
20260503222020 79 80 7.8 13.0 0.00 0.00 0.00 56 1018.7
20260503221544 79 77 7.8 13.0 0.00 0.00 0.00 56 1018.7
20260503221020 80 130 8.7 13.0 0.00 0.00 0.00 55 1018.8
20260503220520 81 146 8.7 13.0 0.00 0.00 0.00 52 1019.0
20260503220046 82 115 8.7 13.9 0.00 0.00 0.00 54 1019.1
20260503215521 81 111 8.7 13.9 0.00 0.00 0.00 55 1019.2
20260503215022 81 90 7.0 15.6 0.00 0.00 0.00 56 1019.4
20260503214540 80 115 7.0 15.6 0.00 0.00 0.00 55 1019.4
20260503214018 80 90 8.7 15.6 0.00 0.00 0.00 54 1019.6
20260503213519 81 88 8.7 16.5 0.00 0.00 0.00 52 1019.6
20260503213043 80 88 6.1 16.5 0.00 0.00 0.00 55 1019.7
20260503212518 81 94 9.6 14.8 0.00 0.00 0.00 55 1019.8
20260503212021 82 109 6.1 13.9 0.00 0.00 0.00 51 1019.9
20260503211537 83 86 7.8 13.9 0.00 0.00 0.00 51 1020.0
20260503211018 83 126 7.0 13.0 0.00 0.00 0.00 53 1020.1
20260503210521 83 109 7.0 13.0 0.00 0.00 0.00 52 1020.1
20260503210035 83 109 7.8 14.8 0.00 0.00 0.00 51 1020.1
20260503205519 83 79 7.8 14.8 0.00 0.00 0.00 52 1020.1
20260503205019 84 94 7.8 13.9 0.00 0.00 0.00 50 1020.2
20260503204535 82 53 7.8 13.9 0.00 0.00 0.00 51 1020.1
20260503204018 83 65 7.8 15.6 0.00 0.00 0.00 50 1020.3
20260503203519 83 93 5.2 15.6 0.00 0.00 0.00 52 1020.3
20260503203034 83 100 8.7 15.6 0.00 0.00 0.00 49 1020.4
20260503202518 83 60 7.8 16.5 0.00 0.00 0.00 51 1020.4
20260503202021 83 61 7.0 16.5 0.00 0.00 0.00 51 1020.7
20260503201542 83 77 6.1 16.5 0.00 0.00 0.00 52 1020.6
20260503201018 83 103 8.7 16.5 0.00 0.00 0.00 51 1020.7
20260503200520 83 92 8.7 16.5 0.00 0.00 0.00 52 1020.8
20260503200039 83 86 7.8 13.0 0.00 0.00 0.00 49 1020.9
20260503195519 84 107 7.8 13.0 0.00 0.00 0.00 49 1020.9
20260503195020 84 65 7.0 17.4 0.00 0.00 0.00 50 1021.0
20260503194538 83 88 9.6 17.4 0.00 0.00 0.00 52 1021.1
20260503194020 83 79 8.7 14.8 0.00 0.00 0.00 50 1021.1
20260503193519 83 90 9.6 14.8 0.00 0.00 0.00 48 1021.1
20260503193036 83 73 4.3 13.9 0.00 0.00 0.00 50 1021.3
20260503192518 83 80 7.0 14.8 0.00 0.00 0.00 47 1021.2
20260503192018 83 51 8.7 14.8 0.00 0.00 0.00 50 1021.4
20260503191534 83 68 7.0 13.0 0.00 0.00 0.00 50 1021.4
20260503191018 83 117 7.0 13.0 0.00 0.00 0.00 50 1021.5
20260503190518 82 75 7.0 14.8 0.00 0.00 0.00 51 1021.5
20260503190045 83 103 8.7 14.8 0.00 0.00 0.00 47 1021.5
20260503185520 83 79 7.8 14.8 0.00 0.00 0.00 48 1021.5
20260503185020 83 78 7.8 13.0 0.00 0.00 0.00 49 1021.7
20260503184540 83 57 7.0 13.9 0.00 0.00 0.00 50 1021.7
20260503184019 83 75 9.6 13.9 0.00 0.00 0.00 48 1021.9
20260503183518 83 123 8.7 13.0 0.00 0.00 0.00 51 1021.9
20260503183054 83 74 7.8 12.2 0.00 0.00 0.00 48 1022.0
20260503182519 83 76 7.0 13.9 0.00 0.00 0.00 49 1022.1
20260503182019 83 107 7.8 13.9 0.00 0.00 0.00 49 1022.2
20260503181536 83 22 6.1 13.9 0.00 0.00 0.00 51 1022.3
20260503181019 83 85 5.2 15.6 0.00 0.00 0.00 50 1022.4
20260503180519 83 70 7.8 15.6 0.00 0.00 0.00 49 1022.4
20260503180049 82 74 6.1 15.6 0.00 0.00 0.00 51 1022.5
20260503175519 81 58 9.6 15.6 0.00 0.00 0.00 50 1022.6
20260503175018 81 78 7.0 13.0 0.00 0.00 0.00 52 1022.7
20260503174535 82 83 7.8 13.9 0.00 0.00 0.00 47 1022.7
20260503174018 83 42 8.7 13.9 0.00 0.00 0.00 48 1022.7
20260503173518 82 53 5.2 13.0 0.00 0.00 0.00 54 1022.6
20260503173044 81 70 8.7 13.0 0.00 0.00 0.00 53 1022.7
20260503172518 79 107 7.8 13.0 0.00 0.00 0.00 55 1022.7
20260503172018 78 78 4.3 11.3 0.00 0.00 0.00 55 1022.8
20260503171546 78 59 5.2 11.3 0.00 0.00 0.00 57 1022.8
20260503171019 78 91 4.3 12.2 0.00 0.00 0.00 57 1022.8
20260503170520 78 44 6.1 13.9 0.00 0.00 0.00 58 1022.8
20260503150518 77 32 5.2 11.3 0.00 0.00 0.00 63 1022.9
20260503131021 66 323 1.7 4.3 0.00 0.00 0.00 81 1022.0
20260503130520 65 309 0.9 2.6 0.00 0.00 0.00 82 1022.0
20260503110520 60 0 0.0 0.0 0.00 0.00 0.00 82 1021.1
20260503081544 62 0 0.0 2.6 0.00 0.00 0.00 79 1021.4
20260503081019 62 0 0.0 0.9 0.00 0.00 0.00 77 1021.4
20260503080519 62 0 0.0 0.0 0.00 0.00 0.00 76 1021.4
20260503072517 63 0 0.0 0.9 0.00 0.00 0.00 72 1021.5
20260503072022 63 0 0.0 0.9 0.00 0.00 0.00 71 1021.5
20260503071546 63 0 0.0 1.7 0.00 0.00 0.00 71 1021.6
20260503071019 63 19 0.0 1.7 0.00 0.00 0.00 71 1021.5
20260503070518 64 19 0.0 1.7 0.00 0.00 0.00 72 1021.6